DLH6RK EDDF-LIRN

Flight info

Callsign DLH6RK
Flight time 1h 39m
Altitude 37000
Route CINDY8S/18 CINDY Z74 LAMPU DCT NOMBO Y161 RIDAR DCT KONIN DCT BERAS DCT LIKDA N503 BAKOR DCT BELOV DCT SUXUB M736 ERIKA
Aircraft A320/M-SDE2E3FGIJ1LORWXYZ/HB1

Departure

Time 2026-05-07 09:09
Airport Frankfurt Main Airport (EDDF)

Arrival

Time 2026-05-07 10:49
Airport Naples International Airport (LIRN)
Time Latitude Longitude Altitude Speed Heading
2026-05-07 08:50 50.04431 8.56329 362 ft 0 kts 167°
2026-05-07 08:58 50.04450 8.56322 363 ft 4 kts 167°
2026-05-07 08:59 50.04472 8.56314 362 ft 4 kts 174°
2026-05-07 08:59 50.04496 8.56320 356 ft 4 kts 223°
2026-05-07 08:59 50.04510 8.56353 352 ft 4 kts 250°
2026-05-07 08:59 50.04514 8.56373 339 ft 0 kts 249°
2026-05-07 09:02 50.04513 8.56369 363 ft 3 kts 249°
2026-05-07 09:02 50.04483 8.56245 364 ft 17 kts 249°
2026-05-07 09:03 50.04441 8.56068 363 ft 13 kts 250°
2026-05-07 09:03 50.04395 8.56026 356 ft 7 kts 173°
2026-05-07 09:03 50.04321 8.56069 357 ft 14 kts 158°
2026-05-07 09:03 50.04254 8.56001 359 ft 13 kts 249°
2026-05-07 09:04 50.04231 8.55903 357 ft 15 kts 249°
2026-05-07 09:04 50.04190 8.55736 356 ft 18 kts 249°
2026-05-07 09:04 50.04145 8.55544 355 ft 19 kts 250°
2026-05-07 09:04 50.04099 8.55353 354 ft 19 kts 250°
2026-05-07 09:05 50.04052 8.55159 360 ft 20 kts 249°
2026-05-07 09:05 50.04003 8.54951 358 ft 20 kts 250°
2026-05-07 09:05 50.03953 8.54742 355 ft 21 kts 248°
2026-05-07 09:05 50.03900 8.54524 352 ft 21 kts 250°
2026-05-07 09:06 50.03847 8.54340 352 ft 16 kts 234°
2026-05-07 09:06 50.03788 8.54178 351 ft 18 kts 249°
2026-05-07 09:06 50.03742 8.53981 348 ft 20 kts 250°
2026-05-07 09:06 50.03695 8.53783 343 ft 20 kts 249°
2026-05-07 09:07 50.03643 8.53573 336 ft 22 kts 249°
2026-05-07 09:07 50.03587 8.53348 338 ft 23 kts 249°
2026-05-07 09:07 50.03533 8.53119 335 ft 23 kts 250°
2026-05-07 09:07 50.03477 8.52886 332 ft 23 kts 250°
2026-05-07 09:08 50.03430 8.52719 332 ft 15 kts 249°
2026-05-07 09:08 50.03380 8.52599 333 ft 12 kts 205°
2026-05-07 09:08 50.03349 8.52593 335 ft 0 kts 179°
2026-05-07 09:08 50.03347 8.52593 335 ft 2 kts 179°
2026-05-07 09:09 50.03124 8.52595 335 ft 71 kts 180°
2026-05-07 09:09 50.02400 8.52603 335 ft 134 kts 179°
2026-05-07 09:09 50.01300 8.52611 364 ft 179 kts 181°
2026-05-07 09:09 50.00037 8.52612 1006 ft 181 kts 182°
2026-05-07 09:10 49.98775 8.52622 1807 ft 184 kts 182°
2026-05-07 09:10 49.97436 8.52850 2178 ft 207 kts 161°
2026-05-07 09:10 49.96178 8.54137 2540 ft 230 kts 129°
2026-05-07 09:10 49.95332 8.56287 3304 ft 236 kts 117°
2026-05-07 09:11 49.94534 8.58559 3838 ft 241 kts 114°
2026-05-07 09:11 49.94060 8.61044 3975 ft 250 kts 94°
2026-05-07 09:11 49.93945 8.63830 4007 ft 263 kts 91°
2026-05-07 09:11 49.93759 8.66676 4005 ft 267 kts 101°
2026-05-07 09:12 49.93066 8.69353 4007 ft 269 kts 120°
2026-05-07 09:12 49.91862 8.71570 3996 ft 270 kts 139°
2026-05-07 09:12 49.90338 8.73295 3997 ft 271 kts 144°
2026-05-07 09:12 49.88876 8.75129 3994 ft 271 kts 133°
2026-05-07 09:13 49.87729 8.77419 3989 ft 269 kts 119°
2026-05-07 09:13 49.86814 8.79970 4454 ft 272 kts 117°
2026-05-07 09:13 49.85889 8.82546 5490 ft 274 kts 117°
2026-05-07 09:13 49.84951 8.85146 6426 ft 279 kts 117°
2026-05-07 09:14 49.83995 8.87790 7279 ft 284 kts 118°
2026-05-07 09:14 49.83019 8.90484 8123 ft 290 kts 119°
2026-05-07 09:14 49.82021 8.93231 8976 ft 296 kts 120°
2026-05-07 09:14 49.81001 8.96032 9823 ft 301 kts 120°
2026-05-07 09:15 49.79959 8.98882 10592 ft 306 kts 120°
2026-05-07 09:15 49.78902 9.01769 11105 ft 323 kts 120°
2026-05-07 09:15 49.77759 9.04892 11507 ft 341 kts 120°
2026-05-07 09:15 49.76610 9.08146 12234 ft 347 kts 115°
2026-05-07 09:16 49.75801 9.11671 13036 ft 350 kts 103°
2026-05-07 09:16 49.75208 9.15343 13850 ft 353 kts 106°
2026-05-07 09:16 49.74255 9.18858 14529 ft 357 kts 118°
2026-05-07 09:16 49.72846 9.22038 15204 ft 361 kts 130°
2026-05-07 09:17 49.71183 9.24960 15883 ft 364 kts 131°
2026-05-07 09:17 49.69509 9.27900 16588 ft 366 kts 131°
2026-05-07 09:17 49.67820 9.30875 17240 ft 370 kts 131°
2026-05-07 09:17 49.66112 9.33882 17904 ft 374 kts 131°
2026-05-07 09:18 49.64393 9.36912 18507 ft 378 kts 131°
2026-05-07 09:18 49.62624 9.39946 19064 ft 381 kts 136°
2026-05-07 09:18 49.60578 9.42557 19651 ft 383 kts 147°
2026-05-07 09:18 49.58295 9.44701 20227 ft 386 kts 150°
2026-05-07 09:19 49.55971 9.46817 20775 ft 390 kts 150°
2026-05-07 09:19 49.53619 9.48958 21293 ft 395 kts 150°
2026-05-07 09:19 49.51248 9.51117 21821 ft 398 kts 150°
2026-05-07 09:19 49.48851 9.53303 22324 ft 402 kts 150°
2026-05-07 09:20 49.46440 9.55503 22848 ft 405 kts 150°
2026-05-07 09:20 49.44008 9.57723 23363 ft 408 kts 150°
2026-05-07 09:20 49.41554 9.59961 23812 ft 411 kts 150°
2026-05-07 09:20 49.39087 9.62201 24239 ft 414 kts 150°
2026-05-07 09:21 49.36598 9.64454 24670 ft 417 kts 150°
2026-05-07 09:21 49.34156 9.66879 25082 ft 419 kts 142°
2026-05-07 09:21 49.31989 9.69876 25494 ft 421 kts 134°
2026-05-07 09:21 49.29915 9.73066 25900 ft 424 kts 134°
2026-05-07 09:22 49.27823 9.76265 26321 ft 426 kts 134°
2026-05-07 09:22 49.25719 9.79476 26724 ft 428 kts 134°
2026-05-07 09:22 49.23605 9.82696 27121 ft 431 kts 134°
2026-05-07 09:22 49.21470 9.85938 27500 ft 434 kts 134°
2026-05-07 09:23 49.19321 9.89202 27886 ft 436 kts 134°
2026-05-07 09:23 49.17162 9.92479 28263 ft 439 kts 134°
2026-05-07 09:23 49.14995 9.95768 28643 ft 441 kts 134°
2026-05-07 09:23 49.12805 9.99082 29001 ft 444 kts 134°
2026-05-07 09:24 49.10607 10.02400 29361 ft 446 kts 134°
2026-05-07 09:24 49.08391 10.05740 29711 ft 449 kts 134°
2026-05-07 09:24 49.06164 10.09086 30075 ft 451 kts 134°
2026-05-07 09:24 49.03897 10.12411 30386 ft 453 kts 135°
2026-05-07 09:25 49.01597 10.15693 30686 ft 454 kts 136°
2026-05-07 09:25 48.99267 10.18960 30998 ft 457 kts 137°
2026-05-07 09:25 48.96913 10.22235 31302 ft 459 kts 137°
2026-05-07 09:25 48.94555 10.25516 31695 ft 459 kts 138°
2026-05-07 09:26 48.92203 10.28803 32106 ft 458 kts 138°
2026-05-07 09:26 48.89871 10.32077 32564 ft 456 kts 138°
2026-05-07 09:26 48.87555 10.35339 33040 ft 453 kts 139°
2026-05-07 09:26 48.85252 10.38588 33477 ft 451 kts 139°
2026-05-07 09:27 48.82963 10.41820 33907 ft 449 kts 139°
2026-05-07 09:27 48.80726 10.45134 34268 ft 448 kts 137°
2026-05-07 09:27 48.76450 10.51994 34876 ft 447 kts 135°
2026-05-07 09:28 48.74350 10.55472 35181 ft 446 kts 135°
2026-05-07 09:28 48.72262 10.58919 35457 ft 445 kts 136°
2026-05-07 09:28 48.70145 10.62365 35718 ft 445 kts 136°
2026-05-07 09:28 48.68021 10.65773 35971 ft 445 kts 136°
2026-05-07 09:29 48.65888 10.69160 36215 ft 445 kts 137°
2026-05-07 09:29 48.63750 10.72541 36455 ft 445 kts 137°
2026-05-07 09:29 48.61611 10.75921 36690 ft 445 kts 137°
2026-05-07 09:29 48.59383 10.79147 36927 ft 442 kts 144°
2026-05-07 09:30 48.56875 10.81799 37010 ft 437 kts 153°
2026-05-07 09:30 48.51507 10.86013 37029 ft 434 kts 156°
2026-05-07 09:31 48.46151 10.90193 37031 ft 432 kts 156°
2026-05-07 09:31 48.40853 10.94338 37030 ft 432 kts 156°
2026-05-07 09:32 48.35519 10.98486 37028 ft 432 kts 156°
2026-05-07 09:32 48.30140 11.02645 37029 ft 432 kts 156°
2026-05-07 09:33 48.24797 11.06773 37029 ft 432 kts 156°
2026-05-07 09:33 48.19444 11.10894 37036 ft 433 kts 156°
2026-05-07 09:34 48.14085 11.15026 37042 ft 433 kts 156°
2026-05-07 09:34 48.08735 11.19144 37038 ft 432 kts 156°
2026-05-07 09:35 48.03391 11.23231 37040 ft 431 kts 156°
2026-05-07 09:35 47.98088 11.27277 37048 ft 431 kts 156°
2026-05-07 09:36 47.92759 11.31349 37045 ft 430 kts 156°
2026-05-07 09:36 47.87428 11.35409 37030 ft 430 kts 156°
2026-05-07 09:37 47.82119 11.39521 37020 ft 431 kts 155°
2026-05-07 09:37 47.76873 11.43828 36995 ft 431 kts 155°
2026-05-07 09:38 47.71645 11.48163 37007 ft 430 kts 155°
2026-05-07 09:38 47.66408 11.52442 37019 ft 429 kts 155°
2026-05-07 09:39 47.61173 11.56671 37011 ft 428 kts 156°
2026-05-07 09:39 47.55938 11.60884 37025 ft 428 kts 156°
2026-05-07 09:40 47.50706 11.65097 37027 ft 428 kts 155°
2026-05-07 09:40 47.45475 11.69306 37020 ft 428 kts 155°
2026-05-07 09:41 47.40245 11.73514 36990 ft 428 kts 156°
2026-05-07 09:41 47.34736 11.76405 37007 ft 416 kts 175°
2026-05-07 09:42 47.29014 11.76580 37014 ft 411 kts 186°
2026-05-07 09:42 47.23305 11.76246 37020 ft 411 kts 185°
2026-05-07 09:43 47.17583 11.75936 37008 ft 411 kts 185°
2026-05-07 09:43 47.11867 11.75629 37024 ft 411 kts 185°
2026-05-07 09:44 47.06164 11.75324 37015 ft 410 kts 185°
2026-05-07 09:44 47.00453 11.75010 37003 ft 411 kts 185°
2026-05-07 09:45 46.94737 11.74707 37000 ft 411 kts 186°
2026-05-07 09:45 46.89065 11.74402 36999 ft 411 kts 186°
2026-05-07 09:46 46.83351 11.74089 36991 ft 411 kts 186°
2026-05-07 09:46 46.77641 11.73775 36967 ft 410 kts 186°
2026-05-07 09:47 46.71931 11.73463 36983 ft 411 kts 186°
2026-05-07 09:47 46.66230 11.73159 36982 ft 410 kts 186°
2026-05-07 09:48 46.60559 11.73336 36980 ft 416 kts 174°
2026-05-07 09:48 46.54987 11.75780 36960 ft 420 kts 166°
2026-05-07 09:49 46.49451 11.78524 36958 ft 420 kts 166°
2026-05-07 09:49 46.44845 11.80790 36954 ft 421 kts 166°
2026-05-07 09:50 46.39298 11.83514 36952 ft 421 kts 166°
2026-05-07 09:50 46.33743 11.86235 36936 ft 421 kts 167°
2026-05-07 09:51 46.28186 11.88947 36948 ft 421 kts 166°
2026-05-07 09:51 46.22632 11.91668 36957 ft 422 kts 166°
2026-05-07 09:52 46.18914 11.93490 36958 ft 422 kts 166°
2026-05-07 09:52 46.11546 11.97089 36965 ft 422 kts 166°
2026-05-07 09:53 46.05983 11.99797 36956 ft 422 kts 167°
2026-05-07 09:53 46.00415 12.02490 36991 ft 421 kts 167°
2026-05-07 09:54 45.94871 12.05162 36990 ft 419 kts 167°
2026-05-07 09:54 45.89329 12.07822 36977 ft 420 kts 167°
2026-05-07 09:55 45.83818 12.10480 36994 ft 421 kts 167°
2026-05-07 09:55 45.78267 12.13153 37001 ft 421 kts 167°
2026-05-07 09:56 45.72712 12.15813 36990 ft 421 kts 167°
2026-05-07 09:56 45.67157 12.18474 37008 ft 421 kts 167°
2026-05-07 09:57 45.61599 12.21131 36995 ft 421 kts 167°
2026-05-07 09:57 45.56046 12.23775 37010 ft 420 kts 167°
2026-05-07 09:58 45.50501 12.26413 37008 ft 420 kts 167°
2026-05-07 09:58 45.44961 12.29049 37013 ft 420 kts 167°
2026-05-07 09:59 45.39426 12.31674 37015 ft 419 kts 167°
2026-05-07 09:59 45.33887 12.34287 37018 ft 419 kts 167°
2026-05-07 10:00 45.28352 12.36894 36999 ft 419 kts 168°
2026-05-07 10:00 45.22812 12.39502 37005 ft 419 kts 168°
2026-05-07 10:01 45.17275 12.42108 37001 ft 419 kts 168°
2026-05-07 10:01 45.11739 12.44705 37014 ft 419 kts 168°
2026-05-07 10:02 45.06205 12.47285 37018 ft 418 kts 168°
2026-05-07 10:02 45.00676 12.49854 37028 ft 418 kts 168°
2026-05-07 10:03 44.95145 12.52427 37022 ft 419 kts 168°
2026-05-07 10:03 44.89609 12.55011 37028 ft 419 kts 168°
2026-05-07 10:04 44.84082 12.57588 37024 ft 419 kts 168°
2026-05-07 10:04 44.78548 12.60152 37023 ft 418 kts 168°
2026-05-07 10:05 44.73020 12.62697 37007 ft 418 kts 168°
2026-05-07 10:05 44.67499 12.65243 37002 ft 417 kts 168°
2026-05-07 10:06 44.61983 12.67785 37015 ft 417 kts 168°
2026-05-07 10:06 44.56629 12.70245 37024 ft 417 kts 168°
2026-05-07 10:07 44.51126 12.72867 37026 ft 419 kts 166°
2026-05-07 10:07 44.45685 12.75816 37012 ft 420 kts 165°
2026-05-07 10:08 44.40250 12.78834 37016 ft 420 kts 165°
2026-05-07 10:08 44.34801 12.81788 36991 ft 420 kts 166°
2026-05-07 10:09 44.29347 12.84694 37010 ft 419 kts 166°
2026-05-07 10:09 44.23895 12.87587 36997 ft 419 kts 166°
2026-05-07 10:10 44.18439 12.90482 37007 ft 419 kts 166°
2026-05-07 10:10 44.12988 12.93374 37013 ft 419 kts 166°
2026-05-07 10:11 44.07572 12.96238 37012 ft 419 kts 166°
2026-05-07 10:11 44.02120 12.99130 37016 ft 419 kts 166°
2026-05-07 10:12 43.96672 13.02004 37018 ft 419 kts 166°
2026-05-07 10:12 43.91219 13.04868 37017 ft 419 kts 166°
2026-05-07 10:13 43.85773 13.07732 36990 ft 419 kts 166°
2026-05-07 10:13 43.80314 13.10599 36992 ft 420 kts 166°
2026-05-07 10:14 43.74838 13.13462 36977 ft 421 kts 166°
2026-05-07 10:14 43.69355 13.16325 36994 ft 422 kts 166°
2026-05-07 10:15 43.63865 13.19193 37002 ft 422 kts 166°
2026-05-07 10:15 43.58350 13.22063 37010 ft 424 kts 166°
2026-05-07 10:16 43.52828 13.24932 37026 ft 424 kts 166°
2026-05-07 10:16 43.47287 13.27811 37048 ft 427 kts 166°
2026-05-07 10:17 43.41740 13.30671 37011 ft 424 kts 166°
2026-05-07 10:17 43.36213 13.33524 37010 ft 424 kts 166°
2026-05-07 10:18 43.30686 13.36379 37017 ft 425 kts 166°
2026-05-07 10:18 43.25149 13.39231 37025 ft 425 kts 166°
2026-05-07 10:19 43.19609 13.42079 37014 ft 425 kts 166°
2026-05-07 10:19 43.14064 13.44918 37020 ft 426 kts 166°
2026-05-07 10:20 43.08506 13.47755 37022 ft 426 kts 166°
2026-05-07 10:20 43.02956 13.50586 36999 ft 426 kts 166°
2026-05-07 10:21 42.97441 13.53395 36995 ft 426 kts 166°
2026-05-07 10:21 42.91872 13.56228 37001 ft 427 kts 166°
2026-05-07 10:22 42.86306 13.59057 37009 ft 427 kts 166°
2026-05-07 10:22 42.80731 13.61880 37007 ft 428 kts 166°
2026-05-07 10:23 42.75140 13.64704 36828 ft 429 kts 166°
2026-05-07 10:23 42.72345 13.66112 36568 ft 428 kts 166°
2026-05-07 10:23 42.69555 13.67517 36310 ft 427 kts 166°
2026-05-07 10:23 42.66773 13.68916 36013 ft 424 kts 166°
2026-05-07 10:24 42.64019 13.70305 35512 ft 421 kts 166°
2026-05-07 10:24 42.61286 13.71684 35007 ft 417 kts 166°
2026-05-07 10:24 42.58570 13.73047 34499 ft 414 kts 166°
2026-05-07 10:24 42.55873 13.74398 34002 ft 412 kts 166°
2026-05-07 10:25 42.53191 13.75741 33458 ft 409 kts 166°
2026-05-07 10:25 42.50539 13.77070 32973 ft 404 kts 166°
2026-05-07 10:25 42.47920 13.78383 32489 ft 399 kts 166°
2026-05-07 10:25 42.45329 13.79683 32005 ft 396 kts 166°
2026-05-07 10:26 42.42762 13.80969 31535 ft 391 kts 166°
2026-05-07 10:26 42.40222 13.82238 31076 ft 387 kts 166°
2026-05-07 10:26 42.37702 13.83493 30612 ft 384 kts 166°
2026-05-07 10:26 42.35211 13.84732 30197 ft 379 kts 166°
2026-05-07 10:27 42.32748 13.85958 29682 ft 375 kts 166°
2026-05-07 10:27 42.30322 13.87170 29297 ft 369 kts 166°
2026-05-07 10:27 42.27933 13.88362 28890 ft 363 kts 166°
2026-05-07 10:27 42.25579 13.89534 28480 ft 357 kts 166°
2026-05-07 10:28 42.23273 13.90678 28097 ft 350 kts 166°
2026-05-07 10:28 42.21000 13.91802 27714 ft 346 kts 166°
2026-05-07 10:28 42.18749 13.92914 27324 ft 342 kts 166°
2026-05-07 10:28 42.16528 13.94015 26924 ft 339 kts 167°
2026-05-07 10:29 42.14324 13.95105 26535 ft 337 kts 167°
2026-05-07 10:29 42.12127 13.96189 26137 ft 336 kts 167°
2026-05-07 10:29 42.09938 13.97271 25738 ft 334 kts 166°
2026-05-07 10:30 42.05577 13.99421 24902 ft 334 kts 166°
2026-05-07 10:30 42.03395 14.00494 24475 ft 334 kts 166°
2026-05-07 10:30 42.01216 14.01566 24037 ft 334 kts 166°
2026-05-07 10:30 41.99035 14.02641 23602 ft 333 kts 166°
2026-05-07 10:31 41.96860 14.03711 23124 ft 332 kts 166°
2026-05-07 10:31 41.94700 14.04771 22691 ft 329 kts 166°
2026-05-07 10:31 41.92582 14.05810 22285 ft 328 kts 166°
2026-05-07 10:31 41.90443 14.06850 21860 ft 326 kts 168°
2026-05-07 10:32 41.88265 14.07512 21446 ft 317 kts 179°
2026-05-07 10:32 41.86093 14.07571 21043 ft 309 kts 190°
2026-05-07 10:32 41.83979 14.07183 20646 ft 306 kts 193°
2026-05-07 10:32 41.81879 14.06779 20259 ft 304 kts 192°
2026-05-07 10:33 41.79788 14.06385 19869 ft 304 kts 192°
2026-05-07 10:33 41.77692 14.05992 19476 ft 304 kts 192°
2026-05-07 10:33 41.75601 14.05600 19087 ft 303 kts 192°
2026-05-07 10:33 41.73509 14.05207 18693 ft 303 kts 192°
2026-05-07 10:34 41.71424 14.04819 18309 ft 303 kts 192°
2026-05-07 10:34 41.69338 14.04430 17882 ft 302 kts 192°
2026-05-07 10:34 41.67259 14.04042 17497 ft 301 kts 192°
2026-05-07 10:34 41.65187 14.03657 17118 ft 300 kts 191°
2026-05-07 10:35 41.63096 14.03587 16739 ft 303 kts 178°
2026-05-07 10:35 41.61028 14.04227 16348 ft 309 kts 164°
2026-05-07 10:35 41.59088 14.05531 15952 ft 313 kts 155°
2026-05-07 10:35 41.57196 14.06973 15562 ft 314 kts 155°
2026-05-07 10:36 41.55299 14.08410 15167 ft 313 kts 155°
2026-05-07 10:36 41.53401 14.09843 14757 ft 314 kts 155°
2026-05-07 10:36 41.51502 14.11273 14380 ft 314 kts 155°
2026-05-07 10:36 41.49598 14.12706 13995 ft 315 kts 155°
2026-05-07 10:37 41.47688 14.14144 13571 ft 316 kts 155°
2026-05-07 10:37 41.45773 14.15586 13155 ft 316 kts 155°
2026-05-07 10:37 41.43863 14.17025 12754 ft 314 kts 154°
2026-05-07 10:37 41.42605 14.17972 12487 ft 313 kts 154°
2026-05-07 10:38 41.40707 14.19396 12079 ft 312 kts 154°
2026-05-07 10:38 41.38814 14.20815 11674 ft 312 kts 154°
2026-05-07 10:38 41.36279 14.22714 11115 ft 313 kts 154°
2026-05-07 10:38 41.35024 14.23655 10841 ft 313 kts 153°
2026-05-07 10:39 41.33129 14.25079 10414 ft 313 kts 153°
2026-05-07 10:39 41.31234 14.26500 9996 ft 313 kts 153°
2026-05-07 10:39 41.29359 14.27906 9787 ft 304 kts 153°
2026-05-07 10:39 41.27539 14.29271 9507 ft 298 kts 153°
2026-05-07 10:40 41.25740 14.30618 9102 ft 295 kts 153°
2026-05-07 10:40 41.23966 14.31946 8488 ft 291 kts 153°
2026-05-07 10:40 41.22210 14.33260 7845 ft 288 kts 153°
2026-05-07 10:40 41.20492 14.34547 7353 ft 280 kts 152°
2026-05-07 10:41 41.18791 14.35819 6912 ft 282 kts 152°
2026-05-07 10:41 41.17097 14.37085 6710 ft 273 kts 152°
2026-05-07 10:41 41.15485 14.38288 6628 ft 260 kts 153°
2026-05-07 10:41 41.13942 14.39437 6522 ft 249 kts 153°
2026-05-07 10:42 41.12462 14.40536 6413 ft 239 kts 153°
2026-05-07 10:42 41.11035 14.41595 6320 ft 231 kts 153°
2026-05-07 10:42 41.09651 14.42623 6227 ft 225 kts 153°
2026-05-07 10:42 41.08314 14.43617 6116 ft 216 kts 153°
2026-05-07 10:43 41.07029 14.44581 6003 ft 210 kts 152°
2026-05-07 10:43 41.05759 14.45590 5652 ft 216 kts 150°
2026-05-07 10:43 41.04475 14.46636 5339 ft 218 kts 149°
2026-05-07 10:43 41.03183 14.47694 5018 ft 217 kts 149°
2026-05-07 10:44 41.01917 14.48728 4714 ft 212 kts 149°
2026-05-07 10:44 41.00670 14.49733 4409 ft 207 kts 153°
2026-05-07 10:44 40.99308 14.50112 4120 ft 199 kts 190°
2026-05-07 10:44 40.98140 14.49291 3827 ft 192 kts 227°
2026-05-07 10:45 40.97455 14.47783 3545 ft 190 kts 238°
2026-05-07 10:45 40.96753 14.46351 3322 ft 182 kts 236°
2026-05-07 10:45 40.96079 14.44962 3052 ft 177 kts 237°
2026-05-07 10:45 40.95446 14.43627 2824 ft 162 kts 237°
2026-05-07 10:46 40.94876 14.42416 2580 ft 149 kts 238°
2026-05-07 10:46 40.94344 14.41285 2369 ft 142 kts 238°
2026-05-07 10:46 40.93827 14.40184 2163 ft 140 kts 238°
2026-05-07 10:46 40.93319 14.39103 1967 ft 138 kts 238°
2026-05-07 10:47 40.92825 14.38053 1774 ft 137 kts 238°
2026-05-07 10:47 40.92322 14.36983 1570 ft 137 kts 238°
2026-05-07 10:47 40.91820 14.35914 1372 ft 137 kts 238°
2026-05-07 10:47 40.91317 14.34846 1172 ft 136 kts 237°
2026-05-07 10:48 40.90817 14.33783 965 ft 136 kts 236°
2026-05-07 10:48 40.90320 14.32726 760 ft 135 kts 235°
2026-05-07 10:48 40.89822 14.31671 558 ft 134 kts 236°
2026-05-07 10:48 40.89329 14.30619 316 ft 134 kts 237°
2026-05-07 10:49 40.88855 14.29611 248 ft 115 kts 238°
2026-05-07 10:49 40.88528 14.28921 275 ft 63 kts 238°
2026-05-07 10:49 40.88390 14.28627 289 ft 19 kts 238°
2026-05-07 10:49 40.88314 14.28509 293 ft 16 kts 223°
2026-05-07 10:50 40.88228 14.28425 299 ft 15 kts 210°
2026-05-07 10:50 40.88135 14.28356 298 ft 15 kts 209°
2026-05-07 10:50 40.88061 14.28344 300 ft 10 kts 116°
2026-05-07 10:50 40.88050 14.28456 296 ft 14 kts 96°
2026-05-07 10:51 40.88040 14.28588 294 ft 9 kts 80°
2026-05-07 10:51 40.88047 14.28611 294 ft 1 kts 57°
2026-05-07 10:51 40.88078 14.28652 292 ft 9 kts 22°
2026-05-07 10:51 40.88128 14.28626 292 ft 7 kts 328°
2026-05-07 10:52 40.88140 14.28616 292 ft 0 kts 329°